Time,TemperatureF,DewpointF,PressureIn,WindDirection,WindDirectionDegrees,WindSpeedMPH,WindSpeedGustMPH,Humidity,HourlyPrecipIn,Conditions,Clouds,dailyrainin,SoftwareType,DateUTC
2013-09-04 00:01:00,66.2,63.5,29.66,NW,313,0.0,0.0,91,0.00,,,0.03,Wunderground v.1.15,2013-09-04 04:01:00,
2013-09-04 00:03:00,66.2,63.5,29.67,NW,313,0.0,0.0,91,0.00,,,0.00,Wunderground v.1.15,2013-09-04 04:03:00,
2013-09-04 00:05:00,66.2,63.5,29.67,NW,313,0.0,0.0,91,0.00,,,0.00,Wunderground v.1.15,2013-09-04 04:05:00,
2013-09-04 00:08:00,66.1,63.4,29.67,NW,313,0.0,0.0,91,0.00,,,0.00,Wunderground v.1.15,2013-09-04 04:08:00,
2013-09-04 00:09:00,66.1,63.4,29.67,NW,313,0.0,0.0,91,0.00,,,0.00,Wunderground v.1.15,2013-09-04 04:09:00,
2013-09-04 00:14:00,66.1,63.4,29.66,NW,313,0.0,0.0,91,0.00,,,0.00,Wunderground v.1.15,2013-09-04 04:14:00,
2013-09-04 00:20:00,66.1,63.7,29.67,NW,313,0.0,0.0,92,0.00,,,0.00,Wunderground v.1.15,2013-09-04 04:20:00,
2013-09-04 00:22:00,66.1,63.7,29.67,NW,313,0.0,1.0,92,0.00,,,0.00,Wunderground v.1.15,2013-09-04 04:22:00,
2013-09-04 00:28:00,66.1,63.4,29.67,NW,313,0.0,1.0,91,0.00,,,0.00,Wunderground v.1.15,2013-09-04 04:28:00,
2013-09-04 00:33:00,66.0,63.3,29.67,NW,313,0.0,0.0,91,0.00,,,0.00,Wunderground v.1.15,2013-09-04 04:33:00,
2013-09-04 00:39:00,66.1,63.7,29.67,NW,313,0.0,0.0,92,0.00,,,0.00,Wunderground v.1.15,2013-09-04 04:39:00,
2013-09-04 00:45:00,66.1,63.7,29.67,NW,313,0.0,0.0,92,0.00,,,0.00,Wunderground v.1.15,2013-09-04 04:45:00,
2013-09-04 00:50:00,66.1,63.7,29.67,NW,313,0.0,0.0,92,0.00,,,0.00,Wunderground v.1.15,2013-09-04 04:50:00,
2013-09-04 00:56:00,66.1,63.4,29.67,NW,313,0.0,1.0,91,0.00,,,0.00,Wunderground v.1.15,2013-09-04 04:56:00,
2013-09-04 01:01:00,66.1,63.4,29.67,NW,313,0.0,0.0,91,0.00,,,0.00,Wunderground v.1.15,2013-09-04 05:01:00,
2013-09-04 01:07:00,65.9,63.2,29.66,NW,313,0.0,1.0,91,0.00,,,0.00,Wunderground v.1.15,2013-09-04 05:07:00,
2013-09-04 01:12:00,65.8,63.1,29.66,NW,313,0.0,0.0,91,0.00,,,0.00,Wunderground v.1.15,2013-09-04 05:12:00,
2013-09-04 01:17:00,65.7,63.3,29.66,NW,313,0.0,1.0,92,0.00,,,0.00,Wunderground v.1.15,2013-09-04 05:17:00,
2013-09-04 01:23:00,65.7,63.6,29.67,NW,313,0.0,0.0,93,0.00,,,0.00,Wunderground v.1.15,2013-09-04 05:23:00,
2013-09-04 01:28:00,65.8,63.7,29.66,NW,313,0.0,0.0,93,0.00,,,0.00,Wunderground v.1.15,2013-09-04 05:28:00,
2013-09-04 01:34:00,65.8,63.7,29.66,NW,313,0.0,0.0,93,0.00,,,0.00,Wunderground v.1.15,2013-09-04 05:34:00,
2013-09-04 01:39:00,65.8,63.7,29.66,NW,313,0.0,0.0,93,0.00,,,0.00,Wunderground v.1.15,2013-09-04 05:39:00,
2013-09-04 01:45:00,65.8,63.7,29.66,NW,313,0.0,0.0,93,0.00,,,0.00,Wunderground v.1.15,2013-09-04 05:45:00,
2013-09-04 01:50:00,65.8,63.7,29.66,NW,313,0.0,0.0,93,0.00,,,0.00,Wunderground v.1.15,2013-09-04 05:50:00,
2013-09-04 01:56:00,65.9,63.8,29.66,NW,313,0.0,2.0,93,0.00,,,0.00,Wunderground v.1.15,2013-09-04 05:56:00,
2013-09-04 02:01:00,66.0,64.2,29.66,NW,313,0.0,0.0,94,0.00,,,0.00,Wunderground v.1.15,2013-09-04 06:01:00,
2013-09-04 02:06:00,66.2,64.4,29.66,NW,313,0.0,0.0,94,0.00,,,0.00,Wunderground v.1.15,2013-09-04 06:06:00,
2013-09-04 02:12:00,66.3,64.5,29.66,NW,313,0.0,0.0,94,0.00,,,0.00,Wunderground v.1.15,2013-09-04 06:12:00,
2013-09-04 02:18:00,66.4,64.0,29.66,NW,313,0.0,0.0,92,0.00,,,0.00,Wunderground v.1.15,2013-09-04 06:18:00,
2013-09-04 02:24:00,66.5,64.1,29.66,NW,313,0.0,0.0,92,0.00,,,0.00,Wunderground v.1.15,2013-09-04 06:24:00,
2013-09-04 02:30:00,66.5,63.8,29.66,NW,313,0.0,0.0,91,0.00,,,0.00,Wunderground v.1.15,2013-09-04 06:30:00,
2013-09-04 02:35:00,66.6,63.9,29.66,NW,313,0.0,0.0,91,0.00,,,0.00,Wunderground v.1.15,2013-09-04 06:35:00,
2013-09-04 02:40:00,66.6,63.9,29.66,NW,313,0.0,0.0,91,0.00,,,0.00,Wunderground v.1.15,2013-09-04 06:40:00,
2013-09-04 02:45:00,66.7,64.0,29.66,NW,313,0.0,0.0,91,0.00,,,0.00,Wunderground v.1.15,2013-09-04 06:45:00,
2013-09-04 02:51:00,66.7,64.0,29.66,NW,313,0.0,0.0,91,0.00,,,0.00,Wunderground v.1.15,2013-09-04 06:51:00,
2013-09-04 02:57:00,66.6,63.9,29.66,NW,313,0.0,1.0,91,0.00,,,0.00,Wunderground v.1.15,2013-09-04 06:57:00,
2013-09-04 03:02:00,66.5,63.8,29.66,NW,313,0.0,0.0,91,0.00,,,0.00,Wunderground v.1.15,2013-09-04 07:02:00,
2013-09-04 03:08:00,66.4,63.7,29.65,NW,313,0.0,0.0,91,0.00,,,0.00,Wunderground v.1.15,2013-09-04 07:08:00,
2013-09-04 03:13:00,66.3,63.6,29.65,NW,313,0.0,0.0,91,0.00,,,0.00,Wunderground v.1.15,2013-09-04 07:13:00,
2013-09-04 03:19:00,66.2,63.5,29.66,NW,313,0.0,0.0,91,0.00,,,0.00,Wunderground v.1.15,2013-09-04 07:19:00,
2013-09-04 03:25:00,66.1,63.4,29.65,NW,313,0.0,0.0,91,0.00,,,0.00,Wunderground v.1.15,2013-09-04 07:25:00,
2013-09-04 03:30:00,66.1,63.4,29.65,NW,313,0.0,0.0,91,0.00,,,0.00,Wunderground v.1.15,2013-09-04 07:30:00,
2013-09-04 03:36:00,66.1,63.4,29.65,NW,313,0.0,0.0,91,0.00,,,0.00,Wunderground v.1.15,2013-09-04 07:36:00,
2013-09-04 03:42:00,66.0,63.3,29.66,NW,313,0.0,0.0,91,0.00,,,0.00,Wunderground v.1.15,2013-09-04 07:42:00,
2013-09-04 03:48:00,65.9,63.2,29.66,NW,313,0.0,0.0,91,0.00,,,0.00,Wunderground v.1.15,2013-09-04 07:48:00,
2013-09-04 03:54:00,65.9,63.2,29.66,NW,313,0.0,0.0,91,0.00,,,0.00,Wunderground v.1.15,2013-09-04 07:54:00,
2013-09-04 04:00:00,65.8,63.1,29.66,NW,313,0.0,0.0,91,0.00,,,0.00,Wunderground v.1.15,2013-09-04 08:00:00,
2013-09-04 04:06:00,65.8,63.1,29.66,NW,313,0.0,0.0,91,0.00,,,0.00,Wunderground v.1.15,2013-09-04 08:06:00,
2013-09-04 04:12:00,65.8,63.4,29.66,NW,313,0.0,0.0,92,0.00,,,0.00,Wunderground v.1.15,2013-09-04 08:12:00,
2013-09-04 04:17:00,65.7,63.0,29.66,NW,313,0.0,0.0,91,0.00,,,0.00,Wunderground v.1.15,2013-09-04 08:17:00,
2013-09-04 04:23:00,65.7,63.0,29.67,NW,313,0.0,0.0,91,0.00,,,0.00,Wunderground v.1.15,2013-09-04 08:23:00,
2013-09-04 04:29:00,65.6,62.9,29.67,NW,313,0.0,0.0,91,0.00,,,0.00,Wunderground v.1.15,2013-09-04 08:29:00,
2013-09-04 04:35:00,65.6,62.9,29.67,NW,313,0.0,0.0,91,0.00,,,0.00,Wunderground v.1.15,2013-09-04 08:35:00,
2013-09-04 04:40:00,65.6,62.9,29.67,NW,313,0.0,0.0,91,0.00,,,0.00,Wunderground v.1.15,2013-09-04 08:40:00,
2013-09-04 04:48:00,65.6,62.9,29.67,NW,313,0.0,0.0,91,0.00,,,0.00,Wunderground v.1.15,2013-09-04 08:48:00,
2013-09-04 04:54:00,65.7,63.0,29.68,NW,313,0.0,0.0,91,0.00,,,0.00,Wunderground v.1.15,2013-09-04 08:54:00,
2013-09-04 05:00:00,65.7,63.0,29.68,NW,313,0.0,0.0,91,0.00,,,0.00,Wunderground v.1.15,2013-09-04 09:00:00,
2013-09-04 05:06:00,65.7,63.0,29.68,NW,313,0.0,0.0,91,0.00,,,0.00,Wunderground v.1.15,2013-09-04 09:06:00,
2013-09-04 05:11:00,65.7,63.0,29.68,NW,313,0.0,0.0,91,0.00,,,0.00,Wunderground v.1.15,2013-09-04 09:11:00,
2013-09-04 05:16:00,65.6,62.9,29.68,NW,313,0.0,0.0,91,0.00,,,0.00,Wunderground v.1.15,2013-09-04 09:16:00,
2013-09-04 05:22:00,65.5,62.8,29.68,NW,313,0.0,0.0,91,0.00,,,0.00,Wunderground v.1.15,2013-09-04 09:22:00,
2013-09-04 05:27:00,65.4,62.7,29.68,NW,313,0.0,0.0,91,0.00,,,0.00,Wunderground v.1.15,2013-09-04 09:27:00,
2013-09-04 05:33:00,65.3,62.6,29.68,NW,313,0.0,0.0,91,0.00,,,0.00,Wunderground v.1.15,2013-09-04 09:33:00,
2013-09-04 05:38:00,65.3,62.6,29.68,NW,313,0.0,0.0,91,0.00,,,0.00,Wunderground v.1.15,2013-09-04 09:38:00,
2013-09-04 05:44:00,65.2,62.8,29.68,NW,313,0.0,0.0,92,0.00,,,0.00,Wunderground v.1.15,2013-09-04 09:44:00,
2013-09-04 05:50:00,65.0,62.6,29.69,NW,313,0.0,0.0,92,0.00,,,0.00,Wunderground v.1.15,2013-09-04 09:50:00,
2013-09-04 05:56:00,64.9,62.5,29.69,NW,313,0.0,0.0,92,0.00,,,0.00,Wunderground v.1.15,2013-09-04 09:56:00,
2013-09-04 06:01:00,64.9,62.5,29.69,NW,313,0.0,0.0,92,0.00,,,0.00,Wunderground v.1.15,2013-09-04 10:01:00,
2013-09-04 06:07:00,64.9,62.5,29.69,NW,313,0.0,0.0,92,0.00,,,0.00,Wunderground v.1.15,2013-09-04 10:07:00,
2013-09-04 06:13:00,64.9,62.2,29.69,NW,313,0.0,0.0,91,0.00,,,0.00,Wunderground v.1.15,2013-09-04 10:13:00,
2013-09-04 06:19:00,64.9,62.2,29.70,NW,313,0.0,0.0,91,0.00,,,0.00,Wunderground v.1.15,2013-09-04 10:19:00,
2013-09-04 06:25:00,64.8,62.1,29.70,NW,313,0.0,0.0,91,0.00,,,0.00,Wunderground v.1.15,2013-09-04 10:25:00,
2013-09-04 06:30:00,64.8,62.1,29.70,NW,313,0.0,0.0,91,0.00,,,0.00,Wunderground v.1.15,2013-09-04 10:30:00,
2013-09-04 06:35:00,64.8,62.4,29.70,NW,313,0.0,0.0,92,0.00,,,0.00,Wunderground v.1.15,2013-09-04 10:35:00,
2013-09-04 06:41:00,64.7,62.0,29.70,NW,313,0.0,0.0,91,0.00,,,0.00,Wunderground v.1.15,2013-09-04 10:41:00,
2013-09-04 06:48:00,64.6,62.2,29.71,NW,313,0.0,0.0,92,0.00,,,0.00,Wunderground v.1.15,2013-09-04 10:48:00,
2013-09-04 06:54:00,64.5,62.1,29.71,NW,313,0.0,0.0,92,0.00,,,0.00,Wunderground v.1.15,2013-09-04 10:54:00,
2013-09-04 07:00:00,64.5,62.4,29.72,NW,313,0.0,0.0,93,0.00,,,0.00,Wunderground v.1.15,2013-09-04 11:00:00,
2013-09-04 07:06:00,64.5,62.4,29.72,NW,313,0.0,0.0,93,0.00,,,0.00,Wunderground v.1.15,2013-09-04 11:06:00,
2013-09-04 07:12:00,64.4,62.3,29.72,NW,313,0.0,0.0,93,0.00,,,0.00,Wunderground v.1.15,2013-09-04 11:12:00,
2013-09-04 07:18:00,64.3,62.2,29.73,NW,313,0.0,0.0,93,0.00,,,0.00,Wunderground v.1.15,2013-09-04 11:18:00,
2013-09-04 07:23:00,64.0,61.9,29.73,NW,313,0.0,0.0,93,0.00,,,0.00,Wunderground v.1.15,2013-09-04 11:23:00,
2013-09-04 07:29:00,63.9,61.8,29.73,NW,313,0.0,0.0,93,0.00,,,0.00,Wunderground v.1.15,2013-09-04 11:29:00,
2013-09-04 07:34:00,63.9,62.1,29.74,NW,313,0.0,0.0,94,0.00,,,0.00,Wunderground v.1.15,2013-09-04 11:34:00,
2013-09-04 07:40:00,64.0,62.2,29.74,NW,313,0.0,0.0,94,0.00,,,0.00,Wunderground v.1.15,2013-09-04 11:40:00,
2013-09-04 07:48:00,64.1,62.0,29.75,NW,314,0.0,0.0,93,0.00,,,0.00,Wunderground v.1.15,2013-09-04 11:48:00,
2013-09-04 07:54:00,64.2,62.1,29.75,NW,313,0.0,0.0,93,0.00,,,0.00,Wunderground v.1.15,2013-09-04 11:54:00,
2013-09-04 07:59:00,64.3,61.9,29.75,NW,313,0.0,0.0,92,0.00,,,0.00,Wunderground v.1.15,2013-09-04 11:59:00,
2013-09-04 08:04:00,64.3,61.9,29.75,NW,313,0.0,0.0,92,0.00,,,0.00,Wunderground v.1.15,2013-09-04 12:04:00,
2013-09-04 08:10:00,64.3,62.2,29.75,NW,313,0.0,0.0,93,0.00,,,0.00,Wunderground v.1.15,2013-09-04 12:10:00,
2013-09-04 08:16:00,64.3,61.9,29.75,NW,313,0.0,0.0,92,0.00,,,0.00,Wunderground v.1.15,2013-09-04 12:16:00,
2013-09-04 08:21:00,64.3,62.2,29.75,NW,313,0.0,0.0,93,0.00,,,0.00,Wunderground v.1.15,2013-09-04 12:21:00,
2013-09-04 08:27:00,64.3,62.2,29.75,NW,313,0.0,0.0,93,0.00,,,0.00,Wunderground v.1.15,2013-09-04 12:27:00,
2013-09-04 08:33:00,64.3,62.2,29.76,NW,313,0.0,0.0,93,0.00,,,0.00,Wunderground v.1.15,2013-09-04 12:33:00,
2013-09-04 08:38:00,64.4,62.6,29.76,NW,313,0.0,0.0,94,0.00,,,0.00,Wunderground v.1.15,2013-09-04 12:38:00,
2013-09-04 08:43:00,64.5,62.7,29.76,NW,313,0.0,0.0,94,0.00,,,0.00,Wunderground v.1.15,2013-09-04 12:43:00,
2013-09-04 08:48:00,64.8,62.7,29.76,NW,313,0.0,0.0,93,0.00,,,0.00,Wunderground v.1.15,2013-09-04 12:48:00,
2013-09-04 08:54:00,65.2,63.1,29.76,NW,313,0.0,0.0,93,0.00,,,0.00,Wunderground v.1.15,2013-09-04 12:54:00,
2013-09-04 09:00:00,65.6,63.5,29.76,NW,313,0.0,0.0,93,0.00,,,0.00,Wunderground v.1.15,2013-09-04 13:00:00,
2013-09-04 09:06:00,65.8,63.4,29.77,NW,313,0.0,0.0,92,0.00,,,0.00,Wunderground v.1.15,2013-09-04 13:06:00,
2013-09-04 09:12:00,65.9,63.5,29.77,NW,313,0.0,0.0,92,0.00,,,0.00,Wunderground v.1.15,2013-09-04 13:12:00,
2013-09-04 09:18:00,66.1,63.7,29.77,NW,314,0.0,0.0,92,0.00,,,0.00,Wunderground v.1.15,2013-09-04 13:18:00,
2013-09-04 09:23:00,66.2,63.5,29.78,NW,313,0.0,0.0,91,0.00,,,0.00,Wunderground v.1.15,2013-09-04 13:23:00,
2013-09-04 09:29:00,66.4,63.7,29.78,NW,313,0.0,0.0,91,0.00,,,0.00,Wunderground v.1.15,2013-09-04 13:29:00,
2013-09-04 09:34:00,66.6,64.2,29.78,NW,313,0.0,0.0,92,0.00,,,0.00,Wunderground v.1.15,2013-09-04 13:34:00,
2013-09-04 09:39:00,66.8,64.1,29.78,NW,313,0.0,0.0,91,0.00,,,0.00,Wunderground v.1.15,2013-09-04 13:39:00,
2013-09-04 09:45:00,67.3,64.6,29.78,NW,313,0.0,0.0,91,0.00,,,0.00,Wunderground v.1.15,2013-09-04 13:45:00,
2013-09-04 09:50:00,67.7,65.0,29.78,NW,313,0.0,0.0,91,0.00,,,0.00,Wunderground v.1.15,2013-09-04 13:50:00,
2013-09-04 09:56:00,68.1,65.1,29.78,NW,313,0.0,0.0,90,0.00,,,0.00,Wunderground v.1.15,2013-09-04 13:56:00,
2013-09-04 10:01:00,68.5,65.4,29.78,NW,313,0.0,0.0,90,0.00,,,0.00,Wunderground v.1.15,2013-09-04 14:01:00,
2013-09-04 10:07:00,69.0,65.6,29.78,NW,313,0.0,0.0,89,0.00,,,0.00,Wunderground v.1.15,2013-09-04 14:07:00,
2013-09-04 10:15:00,70.1,66.0,29.78,NW,313,0.0,0.0,87,0.00,,,0.00,Wunderground v.1.15,2013-09-04 14:15:00,
2013-09-04 10:20:00,70.8,65.7,29.78,NW,313,0.0,0.0,84,0.00,,,0.00,Wunderground v.1.15,2013-09-04 14:20:00,
2013-09-04 10:26:00,71.4,67.0,29.78,NW,313,0.0,0.0,86,0.00,,,0.00,Wunderground v.1.15,2013-09-04 14:26:00,
2013-09-04 10:32:00,72.1,67.0,29.78,NW,313,0.0,0.0,84,0.00,,,0.00,Wunderground v.1.15,2013-09-04 14:32:00,
2013-09-04 10:37:00,72.5,67.4,29.78,NW,313,0.0,0.0,84,0.00,,,0.00,Wunderground v.1.15,2013-09-04 14:37:00,
2013-09-04 10:43:00,73.0,67.9,29.78,NW,313,0.0,0.0,84,0.00,,,0.00,Wunderground v.1.15,2013-09-04 14:43:00,
2013-09-04 10:48:00,73.2,68.1,29.78,NW,313,0.0,0.0,84,0.00,,,0.00,Wunderground v.1.15,2013-09-04 14:48:00,
2013-09-04 10:54:00,73.3,66.0,29.78,NNE,25,0.0,0.0,78,0.00,,,0.00,Wunderground v.1.15,2013-09-04 14:54:00,
2013-09-04 11:00:00,73.6,65.6,29.79,NW,309,0.0,0.0,76,0.00,,,0.00,Wunderground v.1.15,2013-09-04 15:00:00,
2013-09-04 11:06:00,74.0,65.6,29.79,NW,309,0.0,0.0,75,0.00,,,0.00,Wunderground v.1.15,2013-09-04 15:06:00,
2013-09-04 11:12:00,74.6,67.3,29.79,NW,309,0.0,0.0,78,0.00,,,0.00,Wunderground v.1.15,2013-09-04 15:12:00,
2013-09-04 11:18:00,74.7,65.5,29.79,NW,317,0.0,0.0,73,0.00,,,0.00,Wunderground v.1.15,2013-09-04 15:18:00,
2013-09-04 11:23:00,74.7,65.1,29.78,WSW,247,0.0,0.0,72,0.00,,,0.00,Wunderground v.1.15,2013-09-04 15:23:00,
2013-09-04 11:29:00,74.8,65.6,29.79,SW,236,0.0,0.0,73,0.00,,,0.00,Wunderground v.1.15,2013-09-04 15:29:00,
2013-09-04 11:34:00,75.1,65.9,29.79,SSW,210,0.0,0.0,73,0.00,,,0.00,Wunderground v.1.15,2013-09-04 15:34:00,
2013-09-04 13:48:00,78.6,67.6,29.77,North,355,0.0,0.0,69,0.00,,,0.00,Wunderground v.1.15,2013-09-04 17:48:00,
2013-09-04 13:53:00,78.4,66.5,29.77,East,84,0.0,1.0,67,0.00,,,0.00,Wunderground v.1.15,2013-09-04 17:53:00,
2013-09-04 13:59:00,78.3,67.3,29.77,North,11,0.0,1.0,69,0.00,,,0.00,Wunderground v.1.15,2013-09-04 17:59:00,
2013-09-04 14:05:00,78.2,68.0,29.77,North,11,0.0,0.0,71,0.00,,,0.00,Wunderground v.1.15,2013-09-04 18:05:00,
2013-09-04 14:11:00,78.2,68.0,29.77,NNE,13,0.0,0.0,71,0.00,,,0.00,Wunderground v.1.15,2013-09-04 18:11:00,
2013-09-04 14:17:00,78.7,67.2,29.77,North,5,0.0,0.0,68,0.00,,,0.00,Wunderground v.1.15,2013-09-04 18:17:00,
2013-09-04 14:22:00,79.1,68.5,29.77,ENE,74,0.0,2.0,70,0.00,,,0.00,Wunderground v.1.15,2013-09-04 18:22:00,
2013-09-04 14:28:00,79.3,67.4,29.76,NE,47,0.0,2.0,67,0.00,,,0.00,Wunderground v.1.15,2013-09-04 18:28:00,
2013-09-04 14:33:00,79.4,67.5,29.76,NE,47,0.0,0.0,67,0.00,,,0.00,Wunderground v.1.15,2013-09-04 18:33:00,
2013-09-04 14:38:00,79.5,68.0,29.76,NE,47,0.0,1.0,68,0.00,,,0.00,Wunderground v.1.15,2013-09-04 18:38:00,
2013-09-04 14:44:00,79.5,69.3,29.75,NE,47,0.0,0.0,71,0.00,,,0.00,Wunderground v.1.15,2013-09-04 18:44:00,
2013-09-04 14:50:00,79.4,67.9,29.75,ENE,76,0.0,1.0,68,0.00,,,0.00,Wunderground v.1.15,2013-09-04 18:50:00,
2013-09-04 14:56:00,79.3,67.8,29.75,ENE,65,0.0,2.0,68,0.00,,,0.00,Wunderground v.1.15,2013-09-04 18:56:00,
2013-09-04 15:01:00,79.2,68.6,29.75,ENE,60,0.0,0.0,70,0.00,,,0.00,Wunderground v.1.15,2013-09-04 19:01:00,
2013-09-04 15:06:00,79.4,68.3,29.75,ENE,60,0.0,1.0,69,0.00,,,0.00,Wunderground v.1.15,2013-09-04 19:06:00,
2013-09-04 15:12:00,79.1,67.6,29.75,SSE,155,0.0,2.0,68,0.00,,,0.00,Wunderground v.1.15,2013-09-04 19:12:00,
2013-09-04 15:18:00,79.1,68.5,29.75,SE,126,0.0,2.0,70,0.00,,,0.00,Wunderground v.1.15,2013-09-04 19:18:00,
2013-09-04 15:24:00,79.1,67.6,29.74,SE,126,0.0,0.0,68,0.00,,,0.00,Wunderground v.1.15,2013-09-04 19:24:00,
2013-09-04 15:30:00,79.2,67.7,29.74,SE,126,0.0,0.0,68,0.00,,,0.00,Wunderground v.1.15,2013-09-04 19:30:00,
2013-09-04 15:35:00,79.2,68.1,29.74,SE,126,0.0,0.0,69,0.00,,,0.00,Wunderground v.1.15,2013-09-04 19:35:00,
2013-09-04 15:41:00,79.2,67.7,29.74,SE,146,0.0,0.0,68,0.00,,,0.00,Wunderground v.1.15,2013-09-04 19:41:00,
2013-09-04 15:48:00,79.2,66.9,29.74,SSW,196,0.0,0.0,66,0.00,,,0.00,Wunderground v.1.15,2013-09-04 19:48:00,
2013-09-04 15:54:00,79.2,67.3,29.74,SSW,209,0.0,1.0,67,0.00,,,0.00,Wunderground v.1.15,2013-09-04 19:54:00,
2013-09-04 15:59:00,79.5,68.0,29.74,SSW,209,0.0,2.0,68,0.00,,,0.00,Wunderground v.1.15,2013-09-04 19:59:00,
2013-09-04 16:05:00,79.5,68.9,29.73,SSW,209,0.0,0.0,70,0.00,,,0.00,Wunderground v.1.15,2013-09-04 20:05:00,
2013-09-04 16:11:00,79.3,69.1,29.73,SSW,209,0.0,1.0,71,0.00,,,0.00,Wunderground v.1.15,2013-09-04 20:11:00,
2013-09-04 16:16:00,79.1,68.9,29.73,SSW,209,0.0,1.0,71,0.00,,,0.00,Wunderground v.1.15,2013-09-04 20:16:00,
2013-09-04 16:22:00,78.8,67.8,29.73,SSW,209,0.0,0.0,69,0.00,,,0.00,Wunderground v.1.15,2013-09-04 20:22:00,
2013-09-04 16:28:00,78.8,67.3,29.73,SSW,201,0.0,0.0,68,0.00,,,0.00,Wunderground v.1.15,2013-09-04 20:28:00,
2013-09-04 16:33:00,78.7,67.7,29.73,SSW,200,0.0,1.0,69,0.00,,,0.00,Wunderground v.1.15,2013-09-04 20:33:00,
2013-09-04 16:39:00,78.4,68.6,29.73,SSW,200,0.0,1.0,72,0.00,,,0.00,Wunderground v.1.15,2013-09-04 20:39:00,
2013-09-04 16:44:00,78.2,68.0,29.73,SSW,200,0.0,0.0,71,0.00,,,0.00,Wunderground v.1.15,2013-09-04 20:44:00,
2013-09-04 16:50:00,78.2,68.4,29.73,SSE,167,0.0,0.0,72,0.00,,,0.00,Wunderground v.1.15,2013-09-04 20:50:00,
2013-09-04 16:56:00,78.2,68.0,29.72,WSW,238,0.0,1.0,71,0.00,,,0.00,Wunderground v.1.15,2013-09-04 20:56:00,
2013-09-04 17:01:00,78.2,68.8,29.72,WSW,248,0.0,0.0,73,0.00,,,0.00,Wunderground v.1.15,2013-09-04 21:01:00,
2013-09-04 17:06:00,78.2,68.8,29.72,WSW,248,0.0,1.0,73,0.00,,,0.00,Wunderground v.1.15,2013-09-04 21:06:00,
2013-09-04 17:12:00,77.9,68.9,29.72,WSW,248,0.0,0.0,74,0.00,,,0.00,Wunderground v.1.15,2013-09-04 21:12:00,
2013-09-04 17:17:00,77.8,68.4,29.72,WSW,238,0.0,0.0,73,0.00,,,0.00,Wunderground v.1.15,2013-09-04 21:17:00,
2013-09-04 17:23:00,77.8,69.6,29.72,West,269,0.0,1.0,76,0.00,,,0.00,Wunderground v.1.15,2013-09-04 21:23:00,
2013-09-04 17:29:00,77.5,68.9,29.72,NW,309,0.0,1.0,75,0.00,,,0.00,Wunderground v.1.15,2013-09-04 21:29:00,
2013-09-04 17:35:00,77.4,70.0,29.71,NW,309,0.0,0.0,78,0.00,,,0.00,Wunderground v.1.15,2013-09-04 21:35:00,
2013-09-04 17:40:00,77.3,70.3,29.71,NW,309,0.0,0.0,79,0.00,,,0.00,Wunderground v.1.15,2013-09-04 21:40:00,
2013-09-04 17:48:00,77.2,70.5,29.71,NW,309,0.0,0.0,80,0.00,,,0.00,Wunderground v.1.15,2013-09-04 21:48:00,
2013-09-04 17:53:00,77.0,69.2,29.71,NW,319,0.0,0.0,77,0.00,,,0.00,Wunderground v.1.15,2013-09-04 21:53:00,
2013-09-04 17:59:00,76.9,69.9,29.71,NW,319,0.0,2.0,79,0.00,,,0.00,Wunderground v.1.15,2013-09-04 21:59:00,
2013-09-04 18:04:00,76.7,70.4,29.71,NW,319,0.0,0.0,81,0.00,,,0.00,Wunderground v.1.15,2013-09-04 22:04:00,
2013-09-04 18:10:00,76.3,69.7,29.71,NW,319,0.0,0.0,80,0.00,,,0.00,Wunderground v.1.15,2013-09-04 22:10:00,
2013-09-04 18:15:00,76.0,69.7,29.71,NW,319,0.0,0.0,81,0.00,,,0.00,Wunderground v.1.15,2013-09-04 22:15:00,
2013-09-04 18:21:00,75.6,69.7,29.71,NW,319,0.0,1.0,82,0.00,,,0.00,Wunderground v.1.15,2013-09-04 22:21:00,
2013-09-04 18:28:00,75.3,69.4,29.71,NW,319,0.0,1.0,82,0.00,,,0.00,Wunderground v.1.15,2013-09-04 22:28:00,
2013-09-04 18:34:00,75.2,69.7,29.71,NW,319,0.0,0.0,83,0.00,,,0.00,Wunderground v.1.15,2013-09-04 22:34:00,
2013-09-04 18:39:00,75.1,69.9,29.71,NW,319,0.0,0.0,84,0.00,,,0.00,Wunderground v.1.15,2013-09-04 22:39:00,
2013-09-04 18:44:00,75.1,69.9,29.71,NW,319,0.0,0.0,84,0.00,,,0.00,Wunderground v.1.15,2013-09-04 22:44:00,
2013-09-04 18:50:00,74.9,70.1,29.71,NW,319,0.0,0.0,85,0.00,,,0.00,Wunderground v.1.15,2013-09-04 22:50:00,
2013-09-04 18:55:00,74.6,69.8,29.71,NW,319,0.0,0.0,85,0.00,,,0.00,Wunderground v.1.15,2013-09-04 22:55:00,
2013-09-04 19:00:00,74.4,69.6,29.71,NW,319,0.0,0.0,85,0.00,,,0.00,Wunderground v.1.15,2013-09-04 23:00:00,
2013-09-04 19:06:00,74.0,69.5,29.71,NW,319,0.0,0.0,86,0.00,,,0.00,Wunderground v.1.15,2013-09-04 23:06:00,
2013-09-04 19:14:00,73.6,69.5,29.71,NW,319,0.0,0.0,87,0.00,,,0.00,Wunderground v.1.15,2013-09-04 23:14:00,
2013-09-04 19:19:00,73.3,69.2,29.71,NW,319,0.0,0.0,87,0.00,,,0.00,Wunderground v.1.15,2013-09-04 23:19:00,
2013-09-04 19:25:00,72.9,68.8,29.71,NW,319,0.0,0.0,87,0.00,,,0.00,Wunderground v.1.15,2013-09-04 23:25:00,
2013-09-04 19:31:00,72.7,68.9,29.72,NW,319,0.0,0.0,88,0.00,,,0.00,Wunderground v.1.15,2013-09-04 23:31:00,
2013-09-04 19:36:00,72.4,68.6,29.71,NW,319,0.0,0.0,88,0.00,,,0.00,Wunderground v.1.15,2013-09-04 23:36:00,
2013-09-04 19:42:00,72.1,68.3,29.72,NW,319,0.0,0.0,88,0.00,,,0.00,Wunderground v.1.15,2013-09-04 23:42:00,
2013-09-04 19:48:00,71.8,68.4,29.72,NW,319,0.0,0.0,89,0.00,,,0.00,Wunderground v.1.15,2013-09-04 23:48:00,
2013-09-04 19:54:00,71.6,67.9,29.72,NW,319,0.0,0.0,88,0.00,,,0.00,Wunderground v.1.15,2013-09-04 23:54:00,
2013-09-04 20:00:00,71.3,67.9,29.72,NW,319,0.0,0.0,89,0.00,,,0.00,Wunderground v.1.15,2013-09-05 00:00:00,
2013-09-04 20:06:00,71.1,67.7,29.73,NW,319,0.0,0.0,89,0.00,,,0.00,Wunderground v.1.15,2013-09-05 00:06:00,
2013-09-04 20:12:00,70.8,67.4,29.73,NW,319,0.0,0.0,89,0.00,,,0.00,Wunderground v.1.15,2013-09-05 00:12:00,
2013-09-04 20:18:00,70.6,67.2,29.73,NW,319,0.0,0.0,89,0.00,,,0.00,Wunderground v.1.15,2013-09-05 00:18:00,
2013-09-04 20:24:00,70.4,67.3,29.73,NW,319,0.0,0.0,90,0.00,,,0.00,Wunderground v.1.15,2013-09-05 00:24:00,
2013-09-04 21:48:00,68.3,66.2,29.78,NW,319,0.0,0.0,93,0.00,,,0.00,Wunderground v.1.15,2013-09-05 01:48:00,
2013-09-04 21:54:00,68.3,66.2,29.79,NW,319,0.0,0.0,93,0.00,,,0.00,Wunderground v.1.15,2013-09-05 01:54:00,
2013-09-04 22:00:00,68.1,66.3,29.79,NW,319,0.0,0.0,94,0.00,,,0.00,Wunderground v.1.15,2013-09-05 02:00:00,
2013-09-04 22:06:00,68.1,66.3,29.79,NW,319,0.0,0.0,94,0.00,,,0.00,Wunderground v.1.15,2013-09-05 02:06:00,
2013-09-04 22:11:00,68.1,66.3,29.79,NW,319,0.0,0.0,94,0.00,,,0.00,Wunderground v.1.15,2013-09-05 02:11:00,
2013-09-04 22:16:00,68.0,66.2,29.79,NW,319,0.0,0.0,94,0.00,,,0.00,Wunderground v.1.15,2013-09-05 02:16:00,
2013-09-04 22:21:00,68.0,66.2,29.80,NW,319,0.0,0.0,94,0.00,,,0.00,Wunderground v.1.15,2013-09-05 02:21:00,
2013-09-04 22:26:00,67.9,66.1,29.80,NW,319,0.0,0.0,94,0.00,,,0.00,Wunderground v.1.15,2013-09-05 02:26:00,
2013-09-04 22:31:00,67.9,66.1,29.80,NW,319,0.0,0.0,94,0.00,,,0.00,Wunderground v.1.15,2013-09-05 02:31:00,
2013-09-04 22:37:00,67.9,66.4,29.80,NW,319,0.0,0.0,95,0.00,,,0.00,Wunderground v.1.15,2013-09-05 02:37:00,
2013-09-04 22:42:00,67.9,66.4,29.80,NW,319,0.0,0.0,95,0.00,,,0.00,Wunderground v.1.15,2013-09-05 02:42:00,
2013-09-04 22:48:00,68.0,66.5,29.80,NW,319,0.0,0.0,95,0.00,,,0.00,Wunderground v.1.15,2013-09-05 02:48:00,
2013-09-04 22:53:00,68.1,66.6,29.80,NW,319,0.0,0.0,95,0.00,,,0.00,Wunderground v.1.15,2013-09-05 02:53:00,
2013-09-04 22:58:00,68.1,66.6,29.80,NW,319,0.0,0.0,95,0.00,,,0.00,Wunderground v.1.15,2013-09-05 02:58:00,
2013-09-04 23:04:00,68.1,66.6,29.80,NW,319,0.0,0.0,95,0.00,,,0.00,Wunderground v.1.15,2013-09-05 03:04:00,
2013-09-04 23:09:00,68.2,66.7,29.80,NW,319,0.0,0.0,95,0.00,,,0.00,Wunderground v.1.15,2013-09-05 03:09:00,
2013-09-04 23:15:00,68.1,66.6,29.80,NW,319,0.0,0.0,95,0.00,,,0.00,Wunderground v.1.15,2013-09-05 03:15:00,
2013-09-04 23:21:00,68.1,66.6,29.80,NW,319,0.0,0.0,95,0.00,,,0.00,Wunderground v.1.15,2013-09-05 03:21:00,
2013-09-04 23:26:00,68.1,66.6,29.80,NW,319,0.0,0.0,95,0.00,,,0.00,Wunderground v.1.15,2013-09-05 03:26:00,
2013-09-04 23:31:00,68.1,66.6,29.80,NW,319,0.0,0.0,95,0.00,,,0.00,Wunderground v.1.15,2013-09-05 03:31:00,
2013-09-04 23:37:00,68.0,66.5,29.81,NW,319,0.0,0.0,95,0.00,,,0.00,Wunderground v.1.15,2013-09-05 03:37:00,
2013-09-04 23:42:00,67.9,66.4,29.80,NW,319,0.0,0.0,95,0.00,,,0.00,Wunderground v.1.15,2013-09-05 03:42:00,
2013-09-04 23:48:00,67.8,66.3,29.80,NW,319,0.0,0.0,95,0.00,,,0.00,Wunderground v.1.15,2013-09-05 03:48:00,
2013-09-04 23:54:00,67.7,66.2,29.80,NW,319,0.0,0.0,95,0.00,,,0.00,Wunderground v.1.15,2013-09-05 03:54:00,